Weather History for Oxnard, CA

Change the Weather History Date:

Monday, January 27, 2014

  Actual Average Record
Temperature  
Mean Temperature 56 °F -  
Max Temperature 63 °F 66 °F 83 °F (1971)
Min Temperature 48 °F 45 °F 34 °F (1950)
Degree Days  
Heating Degree Days 10    
Growing Degree Days 6 (Base 50)    
Moisture  
Dew Point 47 °F    
Average Humidity 75    
Maximum Humidity 89    
Minimum Humidity 54    
Precipitation  
Precipitation 0.00 in - - ()
Sea Level Pressure  
Sea Level Pressure 30.06 in    
Wind  
Wind Speed 5 mph (NNE)    
Max Wind Speed 12 mph    
Max Gust Speed -    
Visibility 9 miles    
Events      
Averages and records for this station are not official NWS values.
T = Trace of Precipitation, MM = Missing Value Source: NWS Daily Summary

Daily Weather History Graph

Daily Weather History Graph

Search for Another Location

Airport:

Trip Planner

Search our weather history database for the weather conditions in past years. The results will help you decide how hot, cold, wet, or windy it might be!

Date:

Astronomy

Jan. 27, 2014 Rise Set
Actual Time 6:57 AM PST 5:22 PM PST
Civil Twilight 6:30 AM PST 5:48 PM PST
Nautical Twilight 6:00 AM PST 6:19 PM PST
Astronomical Twilight 5:30 AM PST 6:48 PM PST
Moon 3:41 AM PST (1/27) 2:15 PM PST (1/27)
Length of Visible Light 11h 17m
Length of Day
10h 24m
Waning Crescent, 14% of the Moon is Illuminated
Jan 27
Waning Crescent
Jan 30
New
Feb 6
First Quarter
Feb 14
Full
Feb 22
Last Quarter

Hourly Weather History & Observations

Time (PST) Temp. Dew Point Humidity Pressure Visibility Wind Dir Wind Speed Gust Speed Precip Events Conditions
12:51 AM 53.1 °F 50.0 °F 89% 30.04 in 7.0 mi ENE 8.1 mph - 0.00 in   Partly Cloudy
1:51 AM 52.0 °F 48.0 °F 86% 30.05 in 9.0 mi NNE 5.8 mph - N/A   Clear
2:51 AM 51.1 °F 46.9 °F 86% 30.04 in 9.0 mi NE 3.5 mph - N/A   Clear
3:51 AM 50.0 °F 46.0 °F 86% 30.04 in 9.0 mi North 3.5 mph - N/A   Clear
4:51 AM 50.0 °F 45.0 °F 83% 30.04 in 10.0 mi Calm Calm - N/A   Clear
5:51 AM 48.0 °F 44.1 °F 86% 30.06 in 10.0 mi NE 5.8 mph - N/A   Clear
6:51 AM 48.0 °F 42.1 °F 80% 30.08 in 10.0 mi NE 8.1 mph - N/A   Clear
7:51 AM 50.0 °F 42.1 °F 74% 30.09 in 10.0 mi ENE 5.8 mph - N/A   Clear
8:51 AM 54.0 °F 43.0 °F 66% 30.09 in 10.0 mi NE 6.9 mph - N/A   Clear
9:51 AM 60.1 °F 44.1 °F 55% 30.10 in 10.0 mi Calm Calm - N/A   Clear
10:51 AM 63.0 °F 46.0 °F 54% 30.09 in 10.0 mi Calm Calm - N/A   Clear
11:51 AM 62.1 °F 48.0 °F 60% 30.08 in 10.0 mi SW 6.9 mph - N/A   Clear
12:51 PM 63.0 °F 48.9 °F 60% 30.05 in 10.0 mi West 8.1 mph - N/A   Clear
1:51 PM 62.1 °F 50.0 °F 65% 30.04 in 10.0 mi West 11.5 mph - N/A   Clear
2:51 PM 61.0 °F 53.1 °F 75% 30.02 in 10.0 mi WSW 8.1 mph - N/A   Clear
3:51 PM 60.1 °F 50.0 °F 69% 30.02 in 10.0 mi WSW 4.6 mph - N/A   Clear
4:51 PM 61.0 °F 48.0 °F 62% 30.02 in 10.0 mi Calm Calm - N/A   Clear
5:51 PM 59.0 °F 51.1 °F 75% 30.04 in 9.0 mi Calm Calm - N/A   Clear
6:51 PM 54.0 °F 50.0 °F 86% 30.05 in 7.0 mi North 3.5 mph - N/A   Clear
7:51 PM 53.1 °F 48.9 °F 86% 30.05 in 7.0 mi Calm Calm - N/A   Clear
8:51 PM 55.0 °F 48.9 °F 80% 30.06 in 9.0 mi Calm Calm - N/A   Clear
9:51 PM 51.1 °F 45.0 °F 80% 30.07 in 10.0 mi Calm Calm - N/A   Clear
10:51 PM 50.0 °F 45.0 °F 83% 30.07 in 9.0 mi NE 3.5 mph - N/A   Clear
11:51 PM 48.9 °F 45.0 °F 86% 30.08 in 9.0 mi Calm Calm - N/A   Clear